Location: Avon Lake
(41.5219°N, 93.5010°W)
Time: 01:14:02
(UTC+00:00)

Tiangong - Pass Details

Date: 21 April 2024
Orbit: 372 x 375 km, 41.5° (Epoch: 20 May)

Event Time Altitude Azimuth Distance (km) Brightness Sun altitude
Rises 02:53:09 0° 269° (W) 2,255 2.6 -19.5°
Reaches altitude 10° 02:55:14 10° 269° (W) 1,397 1.4 -19.8°
Enters shadow 02:58:00 66° 273° (W) 417 -1.9 -20.2°
